Weather History for Cut Bank, MT

Change the Weather History Date:

Friday, July 26, 2013

  Actual Average Record
Temperature  
Mean Temperature 70 °F 66 °F  
Max Temperature 89 °F 82 °F 97 °F (1933)
Min Temperature 50 °F 51 °F 36 °F (2005)
Degree Days  
Heating Degree Days 0 2  
Month to date heating degree days 26 78  
Since 1 June heating degree days 235 311  
Since 1 July heating degree days 26 78  
Cooling Degree Days 5 3  
Month to date cooling degree days 81 57  
Year to date cooling degree days 95 74  
Since 1 June cooling degree days 93 72  
Growing Degree Days 19 (Base 50)    
Moisture  
Dew Point 45 °F    
Average Humidity 46    
Maximum Humidity 74    
Minimum Humidity 18    
Precipitation  
Precipitation 0.00 in 0.04 in 1.52 in (1915)
Month to date precipitation 1.54 1.11  
Year to date precipitation 9.33 7.30  
Snow  
Snow 0.00 in - - ()
Snow Depth 0.00 in    
Sea Level Pressure  
Sea Level Pressure 30.04 in    
Wind  
Wind Speed 10 mph (SE)    
Max Wind Speed 21 mph    
Max Gust Speed 26 mph    
Visibility 10 miles    
Events      
T = Trace of Precipitation, MM = Missing Value Source: NWS Daily Summary

Daily Weather History Graph

Daily Weather History Graph

Search for Another Location

Airport:

Trip Planner

Search our weather history database for the weather conditions in past years. The results will help you decide how hot, cold, wet, or windy it might be!

Date:

Astronomy

Jul. 26, 2013 Rise Set
Actual Time 5:56 AM MDT 9:14 PM MDT
Civil Twilight 5:18 AM MDT 9:52 PM MDT
Nautical Twilight 4:27 AM MDT 10:42 PM MDT
Astronomical Twilight 3:22 AM MDT 11:47 PM MDT
Moon 10:59 PM MDT (7/26) 11:05 AM MDT (7/26)
Length of Visible Light 16h 34m
Length of Day
15h 18m
Waning Gibbous, 79% of the Moon is Illuminated
Jul 26
Waning Gibbous
Jul 29
Last Quarter
Aug 6
New
Aug 14
First Quarter
Aug 20
Full

Hourly Weather History & Observations

Time (MDT) Temp. Dew Point Humidity Pressure Visibility Wind Dir Wind Speed Gust Speed Precip Events Conditions
12:56 AM 60.1 °F 46.9 °F 62% 30.09 in 10.0 mi ESE 9.2 mph - N/A   Clear
1:56 AM 57.9 °F 45.0 °F 62% 30.09 in 10.0 mi East 10.4 mph - N/A   Clear
2:56 AM 55.0 °F 44.1 °F 67% 30.09 in 10.0 mi ESE 10.4 mph - N/A   Clear
3:56 AM 54.0 °F 43.0 °F 66% 30.12 in 10.0 mi NE 12.7 mph - N/A   Clear
4:56 AM 54.0 °F 41.0 °F 62% 30.11 in 10.0 mi East 16.1 mph 25.3 mph N/A   Clear
5:56 AM 53.1 °F 41.0 °F 64% 30.12 in 10.0 mi SE 8.1 mph - N/A   Clear
6:56 AM 50.0 °F 42.1 °F 74% 30.14 in 10.0 mi SSW 4.6 mph - N/A   Clear
7:56 AM 55.9 °F 44.1 °F 64% 30.14 in 10.0 mi South 8.1 mph - N/A   Clear
8:56 AM 61.0 °F 45.0 °F 56% 30.12 in 10.0 mi South 10.4 mph - N/A   Clear
9:56 AM 64.9 °F 46.9 °F 52% 30.12 in 10.0 mi SE 8.1 mph - N/A   Clear
10:56 AM 69.1 °F 48.0 °F 47% 30.09 in 10.0 mi SSE 9.2 mph - N/A   Clear
11:56 AM 73.0 °F 46.9 °F 39% 30.07 in 10.0 mi SE 8.1 mph - N/A   Clear
12:56 PM 79.0 °F 46.9 °F 32% 30.05 in 10.0 mi SE 5.8 mph - N/A   Clear
1:56 PM 82.9 °F 45.0 °F 26% 30.03 in 10.0 mi ESE 10.4 mph 16.1 mph N/A   Clear
2:56 PM 84.9 °F 42.1 °F 22% 30.00 in 10.0 mi ESE 8.1 mph - N/A   Clear
3:56 PM 87.1 °F 39.9 °F 19% 29.99 in 10.0 mi NE 6.9 mph - N/A   Clear
4:56 PM 88.0 °F 39.9 °F 18% 29.96 in 10.0 mi ESE 13.8 mph 19.6 mph N/A   Clear
5:56 PM 88.0 °F 42.1 °F 20% 29.94 in 10.0 mi SSE 10.4 mph - N/A   Clear
6:56 PM 87.1 °F 42.1 °F 21% 29.93 in 10.0 mi SE 13.8 mph 23.0 mph N/A   Clear
7:56 PM 82.9 °F 46.0 °F 27% 29.93 in 10.0 mi ESE 17.3 mph 23.0 mph N/A   Clear
8:56 PM 78.1 °F 46.0 °F 32% 29.94 in 10.0 mi ESE 16.1 mph - N/A   Clear
9:56 PM 73.0 °F 46.9 °F 39% 29.95 in 10.0 mi SE 8.1 mph - N/A   Clear
10:56 PM 71.1 °F 48.9 °F 45% 29.95 in 10.0 mi ESE 11.5 mph - N/A   Clear
11:56 PM 66.9 °F 48.9 °F 52% 29.95 in 10.0 mi ESE 5.8 mph - N/A   Clear